Current Version              Previous Version:    01  02  03  04  05  06  07  08  09  10  11  12  13  14  15  16  17  18  19  20  21  22  23  24  25  26  27  28  29  30  
   31  32  33  34  35  36  37  38  39  40  41  42  43  44  45  46  47  48  49  50  51  52  53  54  55  56  57  58  59  60  

[Printable]
372
ASUS44 KLUB 181610
RWRTX
WEST TEXAS WEATHER ROUNDUP
NATIONAL WEATHER SERVICE LUBBOCK TX
1100 AM CDT FRI APR 18 2014

NOTE: "FAIR" INDICATES FEW OR NO CLOUDS BELOW 12,000 FEET WITH NO
SIGNIFICANT WEATHER AND/OR OBSTRUCTIONS TO VISIBILITY.

TXZ004-006>008-010-012-014-016-OKZ002-181700-
TEXAS PANHANDLE/OKLAHOMA PANHANDLE

CITY           SKY/WX    TMP DP  RH WIND       PRES   REMARKS
AMARILLO       MOSUNNY   50  40  68 S12       30.24S
BORGER         SUNNY     54  39  57 S12       30.22S
CANADIAN       CLOUDY    55  47  74 S13       30.21F
DALHART        SUNNY     55  38  52 SW21      30.18F
DUMAS          SUNNY     52  39  60 SW18      30.20S
GUYMON         SUNNY     55  41  59 S21       30.16S
HEREFORD       PTSUNNY   49  39  67 S6        30.24R
PAMPA          CLOUDY    48  43  81 SW15      30.24R
PERRYTON       CLOUDY    50  45  83 S16       30.21R
$$

TXZ026-029-035-045-048-181700-
SOUTHERN PANHANDLE/SOUTH PLAINS/ROLLING PLAINS

CITY           SKY/WX    TMP DP  RH WIND       PRES   REMARKS
CHILDRESS      CLOUDY    51  46  83 S3        30.27R HAZE
SEMINOLE       CLOUDY    54  49  85 SE9       30.25F
LUBBOCK        PTSUNNY   52  41  66 S6        30.25R
PLAINVIEW      MOSUNNY   50  42  75 S6        30.23F
SNYDER         CLOUDY    52  48  88 SE6       30.28R
$$

TXZ052-054-060>062-072-078-127-140-154-169-181700-
PERMIAN BASIN/CONCHO VALLEY/BIG COUNTRY/EDWARDS PLATEAU

CITY           SKY/WX    TMP DP  RH WIND       PRES   REMARKS
ABILENE        CLOUDY    55  49  80 W3        30.28R
BIG SPRING     CLOUDY    59  50  74 E7        30.28S
BROWNWOOD      CLOUDY    64  54  68 NW5       30.25S
JUNCTION       PTSUNNY   67  54  63 N5        30.22S
MIDLAND        CLOUDY    55  51  86 E9        30.24S FOG
ODESSA         CLOUDY    56  51  84 E12       30.24S
SAN ANGELO     PTSUNNY   65  53  65 NE7       30.24R
SONORA         CLOUDY    66  55  68 E6        30.24S
SWEETWATER     CLOUDY    55  50  83 CALM      30.29S
WINK           CLOUDY    62  52  69 E12       30.19S
$$

TXZ055-058-074-075-080-082-181700-
FAR WEST/SOUTHWEST MOUNTAINS/TRANS PECOS

CITY           SKY/WX    TMP DP  RH WIND       PRES   REMARKS
ALPINE         SUNNY     63  48  57 CALM      30.27S
DRYDEN           N/A     63  60  90 E8        30.20R
EL PASO        CLOUDY    65  41  41 SE8       30.14R
FORT STOCKTON  PTSUNNY   66  52  60 SE16      30.20S
GUADALUPE PASS MOSUNNY   54  45  71 NE20      30.22R
MARFA          SUNNY     63  46  55 E9        30.24S
PECOS          PTSUNNY   64  52  64 E10       30.20S
PRESIDIO       FAIR      70  51  51 NE12G18   30.14S
$$

TXZ014-016-019-021>030-083-181700
TEXAS TECH WEST TEXAS MESONET/TEXAS PANHANDLE/NORTHERN SOUTH PLAINS

CITY           SKY/WX    TMP DP  RH WIND       PRES   REMARKS
ABERNATHY 5ENE   N/A     53  42  67 S6        30.26R
AMARILLO 9NNE    N/A     51  40  66 S9        30.23F
AMARILLO 7SSE    N/A     50  40  68 S10       30.24F
AMHERST 1NE      N/A     50  41  69 S12       30.25S
BOOTLEG 11WNW    N/A     50  39  66 S17       30.24R
CANADIAN 6E      N/A     53  45  75 S9        30.21F
CAPROCK CYN SP   N/A     50  46  84 SE5       30.27R
CHILDRESS 2NNE   N/A     51  45  79 S3        30.26S
CLARENDON 2WSW   N/A     48  44  86 S10       30.26R
CLAUDE 12SW      N/A     48  40  72 S7        30.25R
DIMMITT 2NE      N/A     48  40  75 S9        30.24R
FLOYDADA 2NNE    N/A     50  43  77 S6        30.25S
FRIONA 2NE       N/A     49  40  70 S12       30.25R
GOODLETT 3W      N/A     56  46  69 SE5       30.25S
HART 3N          N/A     49  40  72 S9        30.25R
HEREFORD 2NW     N/A     51  39  63 S9        30.23S
MCLEAN 1E        N/A     47  47  99 S12       30.23S
MEMPHIS 1NE      N/A     52  47  83 S5        30.27R
MULESHOE 2SSW    N/A     50  40  67 S10       30.25S
OLTON 6S         N/A     52  39  61 S9        30.25R
PALO DURO SP     N/A     51  39  63 SE7       30.25F
PAMPA 2E         N/A     48  44  87 S14       30.23R
PLAINVIEW 1S     N/A     50  43  76 SE6       30.24F
SILVERTON 7ESE   N/A     51  43  75 S9        30.26S
TULIA 2ENE       N/A     49  41  75 S6        30.24F
TURKEY 2WSW      N/A     50  47  88 S5        30.26S
UMBARGER 3NNE    N/A     50  39  66 S9        30.24R
$$

TXZ033>036-039>041-045>048-181700
TEXAS TECH WEST TEXAS MESONET/SOUTH PLAINS

CITY           SKY/WX    TMP DP  RH WIND       PRES   REMARKS
AIKEN 3WSW       N/A     50  42  75 SE3       30.26S
ANDREWS 2NE      N/A     55  49  80 SE9       30.24F
ANTON 6SSW       N/A     51  42  72 S9        30.26R
BROWNFIELD 2S    N/A     49  45  85 SE7       30.26S
DENVR CTY 7WNW   N/A     50  46  84 SE8       30.24S
GAIL 2ESE        N/A     53  47  80 SE3       30.27R
LAMESA 2SE       N/A     53  48  84 SE7       30.26F
LEVELLAND 4S     N/A     49  43  78 S9        30.26R
LUBBOCK 3WNW     N/A     54  41  61 S8        30.26R
MORTON 1ENE      N/A     49  43  78 S7        30.25S
ODONNELL 1N      N/A     51  46  83 S6        30.27R
PLAINS 3N        N/A     50  46  84 SE10      30.25S
RALLS 1SE        N/A     53  42  66 S5        30.26S
REESE CENTER     N/A     50  42  73 S8        30.26S
SEAGRAVES 1SW    N/A     51  48  89 SE7       30.25S
SEMINOLE 2NNE    N/A     53  49  86 SE7       30.24F
SLATON 2NE       N/A     53  44  69 S7        30.26R
SNYDER 3E        N/A     52  48  84 SE2       30.27R
SUNDOWN 8SW      N/A     50  45  81 SE9       30.25S
TAHOKA 3NNE      N/A     50  44  79 S6        30.26R
WOLFFORTH 6SSW   N/A     49  42  78 S7        30.27R
$$

TXZ031-032-036>038-042>044-181700-
TEXAS TECH WEST TEXAS MESONET/ROLLING PLAINS

CITY           SKY/WX    TMP DP  RH WIND       PRES   REMARKS
ASPERMONT 3NE    N/A     55  51  85 CALM      30.27S
FLUVANNA 3WNW    N/A     52  46  78 S5        30.27R
GRAHAM 5SSW      N/A     51  45  79 S3        30.27R
GUTHRIE 10WSW    N/A     53  51  95 S1        30.26S
HASKELL 1NW      N/A     55  54  98 N5        30.26R
JAYTON 1SSE      N/A     52  50  93 NW1       30.26F
KNOX CITY 3NW    N/A     53  51  91 N1        30.27S
LK A HENRY 1NW   N/A     53  47  79 SE3       30.26S
NORTHFIELD 1S    N/A     50  49  98 S2        30.27S
ODELL 4ENE       N/A     55  50  83 SE2       30.27R
PADUCAH 10SW     N/A     50  49  97 CALM      30.27R
POST 1NE         N/A     55  44  66 SE3       30.26S
RRING SPRGS 3N   N/A     49  49  97 S5        30.26S
SEYMOUR 3NW      N/A     56  53  90 NE5       30.25F
SPUR 1W          N/A     51  47  86 S3        30.25F
WEINERT 2NNE     N/A     54  53  97 N3        30.26S
WHITE RVR 6NE    N/A     52  44  75 E2        30.25S
$$

TXZ052-054-060>062-072-078-127-140-154-169-181700-
TEXAS TECH WEST TEXAS MESONET/PERMIAN BASIN/
CONCHO VALLEY/BIG COUNTRY/EDWARDS PLATEAU

CITY           SKY/WX    TMP DP  RH WIND       PRES   REMARKS
COYANOSA 2N      N/A     66  53  64 E13       30.20S
JUNCTION 1SSW    N/A     66  56  70 NE6       30.23S
MERTZON 3NNE     N/A     62  52  68 E6        30.25S
SAN ANGELO 7NW   N/A     64  49  57 E3        30.24S
STRLNG CT 4WSW   N/A     59  51  72 E7        30.26S
ST LAWRNCE 5SW   N/A     58  51  78 E10       30.25S
SWEETWATR 11SW   N/A     58  49  74 NE3       30.27S
WALL 1E          N/A     64  51  64 E3        30.25R
$$

TXZ055-058-074-075-080-082-181700-
TEXAS TECH WEST TEXAS MESONET/FAR WEST/SOUTHWEST MOUNTAINS/TRANS PECOS

CITY           SKY/WX    TMP DP  RH WIND       PRES   REMARKS
$$